Location: Forli
(44.2227°N, 12.0407°E)
Time: 14:38:37
(UTC+02:00)

UWE-3 - Pass Details

Date: 20 April 2026
Orbit: 542 x 613 km, 97.9° (Epoch: 10 May)

Event Time Altitude Azimuth Distance (km) Brightness Sun altitude
Rises 05:25:44 0° 353° (N) 2,735 ? -9.9°
Reaches altitude 10° 05:28:52 10° 326° (NW) 1,825 ? -9.4°
Maximum altitude 05:30:43 13° 298° (WNW) 1,629 ? -9.1°
Drops below altitude 10° 05:32:32 10° 270° (W) 1,811 ? -8.8°
Enters shadow 05:32:42 10° 268° (W) 1,845 ? -8.8°
